GW2382 Weather Reports


time (UTC)temp
C
wind
direction
speed
KPH
gust
KPH
rain 1hr
cm
rain 24hr
cm
rain mn
cm
humidity
%
barometer
mb
20260505040004 18 143 0.0 6.4 0.00 0.00 0.00 75 1007.3
20260505035803 18 100 0.0 8.0 0.00 0.00 0.00 76 1007.3
20260505035603 18 25 0.0 9.7 0.00 0.00 0.00 77 1007.3
20260505035403 18 22 0.0 9.7 0.00 0.00 0.00 77 1007.3
20260505035203 18 11 0.0 9.7 0.00 0.00 0.00 77 1007.3
20260505035004 18 1 0.0 9.7 0.00 0.00 0.00 77 1007.1
20260505034804 18 1 0.0 9.7 0.00 0.00 0.00 77 1007.2
20260505034604 18 1 0.0 6.4 0.00 0.00 0.00 77 1007.3
20260505034403 18 1 0.0 6.4 0.00 0.00 0.00 77 1007.3
20260505034204 18 1 0.0 8.0 0.00 0.00 0.00 76 1007.6
20260505034003 18 1 0.0 8.0 0.00 0.00 0.00 75 1007.5
20260505033804 18 1 0.0 8.0 0.00 0.00 0.00 75 1007.5
20260505033603 18 93 0.0 8.0 0.00 0.00 0.00 75 1007.4
20260505033403 18 109 0.0 8.0 0.00 0.00 0.00 74 1007.4
20260505033203 18 151 0.0 8.0 0.00 0.00 0.00 74 1007.5
20260505033004 18 153 0.0 6.4 0.00 0.00 0.00 74 1007.5
20260505032804 18 181 0.0 8.0 0.00 0.00 0.00 74 1007.2
20260505032604 18 222 0.0 8.0 0.00 0.00 0.00 74 1007.4
20260505032404 18 242 0.0 8.0 0.00 0.00 0.00 75 1007.6
20260505032204 18 271 0.0 8.0 0.00 0.00 0.00 75 1007.4
20260505032004 18 272 0.0 8.0 0.00 0.00 0.00 75 1007.4
20260505031803 18 289 0.0 8.0 0.00 0.00 0.00 75 1007.4
20260505031603 18 329 0.0 6.4 0.00 0.00 0.00 75 1007.1
20260505031403 18 336 0.0 6.4 0.00 0.00 0.00 75 1007.4
20260505031203 18 339 0.0 6.4 0.00 0.00 0.00 75 1007.2
20260505031004 18 349 0.0 6.4 0.00 0.00 0.00 75 1007.3
20260505030804 18 1 0.0 6.4 0.00 0.00 0.00 75 1007.3
20260505030604 18 1 0.0 1.6 0.00 0.00 0.00 75 1007.0
20260505030404 18 1 0.0 1.6 0.00 0.00 0.00 75 1007.1
20260505030203 18 1 0.0 1.6 0.00 0.00 0.00 75 1007.2
20260505025803 18 1 0.0 4.8 0.00 0.00 0.00 75 1007.0
20260505025604 18 1 0.0 4.8 0.00 0.00 0.00 75 1007.2
20260505025403 18 1 0.0 4.8 0.00 0.00 0.00 75 1007.0
20260505025203 18 1 0.0 4.8 0.00 0.00 0.00 75 1006.9
20260505025004 18 1 0.0 1.6 0.00 0.00 0.00 75 1006.7
20260505024804 18 0 0.0 0.0 0.00 0.00 0.00 75 1006.8
20260505024604 18 0 0.0 0.0 0.00 0.00 0.00 75 1006.8
20260505024403 18 0 0.0 0.0 0.00 0.00 0.00 74 1006.7
20260505024203 18 0 0.0 0.0 0.00 0.00 0.00 74 1006.8
20260505024004 18 0 0.0 0.0 0.00 0.00 0.00 74 1006.9
20260505023803 18 0 0.0 0.0 0.00 0.00 0.00 74 1006.8
20260505023604 18 0 0.0 0.0 0.00 0.00 0.00 74 1006.8
20260505023404 18 0 0.0 0.0 0.00 0.00 0.00 74 1006.8
20260505023203 18 1 0.0 1.6 0.00 0.00 0.00 74 1006.8
20260505023003 18 1 0.0 4.8 0.00 0.00 0.00 74 1006.6
20260505022803 18 1 0.0 4.8 0.00 0.00 0.00 73 1006.8
20260505022604 18 1 0.0 4.8 0.00 0.00 0.00 73 1006.8
20260505022404 18 1 0.0 4.8 0.00 0.00 0.00 73 1006.6
20260505022204 18 1 0.0 4.8 0.00 0.00 0.00 72 1006.4
20260505022003 18 1 0.0 4.8 0.00 0.00 0.00 72 1006.4
20260505021803 18 181 0.0 1.6 0.00 0.00 0.00 72 1006.4
20260505021603 19 0 0.0 0.0 0.00 0.00 0.00 72 1006.5
20260505021404 19 0 0.0 0.0 0.00 0.00 0.00 72 1006.7
20260505021203 19 0 0.0 0.0 0.00 0.00 0.00 71 1006.6
20260505021004 19 0 0.0 0.0 0.00 0.00 0.00 71 1006.7
20260505020804 19 0 0.0 0.0 0.00 0.00 0.00 71 1006.5
20260505020603 19 1 0.0 1.6 0.00 0.00 0.00 71 1006.4
20260505020403 19 1 0.0 1.6 0.00 0.00 0.00 71 1006.6
20260505020204 19 1 0.0 1.6 0.00 0.00 0.00 71 1006.5
20260505015804 19 1 0.0 1.6 0.00 0.00 0.00 71 1006.4
20260505015604 19 0 0.0 0.0 0.00 0.00 0.00 70 1006.4
20260505015404 19 0 0.0 0.0 0.00 0.00 0.00 69 1006.4
20260505015204 19 0 0.0 0.0 0.00 0.00 0.00 69 1006.5
20260505015004 19 0 0.0 0.0 0.00 0.00 0.00 69 1006.4
20260505014803 19 314 0.0 6.4 0.00 0.00 0.00 69 1006.4
20260505014603 20 314 0.0 6.4 0.00 0.00 0.00 68 1006.2
20260505014403 20 314 0.0 6.4 0.00 0.00 0.00 68 1006.2
20260505014203 20 314 0.0 6.4 0.00 0.00 0.00 68 1006.2
20260505014003 20 314 0.0 6.4 0.00 0.00 0.00 68 1006.2
20260505013603 20 0 0.0 0.0 0.00 0.00 0.00 67 1006.3
20260505013403 20 0 0.0 0.0 0.00 0.00 0.00 67 1006.3
20260505013203 20 0 0.0 0.0 0.00 0.00 0.00 67 1006.2
20260505012804 20 1 0.0 6.4 0.00 0.00 0.00 67 1006.3
20260505012605 20 1 0.0 6.4 0.00 0.00 0.00 67 1006.2
20260505012203 20 1 0.0 6.4 0.00 0.00 0.00 67 1006.1
20260505012003 20 1 0.0 4.8 0.00 0.00 0.00 67 1006.1
20260505011803 20 1 0.0 4.8 0.00 0.00 0.00 67 1006.1
20260505011603 20 1 0.0 1.6 0.00 0.00 0.00 67 1006.0
20260505011404 20 1 0.0 1.6 0.00 0.00 0.00 67 1006.3
20260505011204 20 0 0.0 0.0 0.00 0.00 0.00 67 1006.1
20260505011003 20 90 0.0 4.8 0.00 0.00 0.00 66 1006.1
20260505010803 20 77 0.0 6.4 0.00 0.00 0.00 66 1006.1
20260505010404 21 40 0.0 6.4 0.00 0.00 0.00 65 1006.1
20260505010204 21 29 0.0 6.4 0.00 0.00 0.00 64 1006.0
20260505010004 21 19 0.0 6.4 0.00 0.00 0.00 64 1006.0
20260505005803 21 1 0.0 4.8 0.00 0.00 0.00 63 1006.0
20260505005603 21 1 0.0 4.8 0.00 0.00 0.00 63 1006.0
20260505005403 21 1 0.0 4.8 0.00 0.00 0.00 62 1006.1
20260505005203 21 1 0.0 4.8 0.00 0.00 0.00 62 1006.1
20260505005004 21 1 0.0 4.8 0.00 0.00 0.00 62 1006.0
20260505004803 21 1 0.0 4.8 0.00 0.00 0.00 62 1005.9
20260505004404 21 1 0.0 4.8 0.00 0.00 0.00 61 1006.0
20260505004203 21 1 0.0 4.8 0.00 0.00 0.00 61 1006.2
20260505004003 21 1 0.0 4.8 0.00 0.00 0.00 61 1006.1
20260505003803 22 1 0.0 4.8 0.00 0.00 0.00 61 1006.0
20260505003603 22 1 0.0 4.8 0.00 0.00 0.00 61 1006.0
20260505003403 22 1 0.0 6.4 0.00 0.00 0.00 60 1005.8
20260505003204 22 2 0.0 6.4 0.00 0.00 0.00 60 1005.9
20260505003004 22 336 0.0 9.7 0.00 0.00 0.00 60 1005.9
20260505002604 22 331 1.6 9.7 0.00 0.00 0.00 60 1005.8
20260505002403 22 315 1.6 14.5 0.00 0.00 0.00 60 1005.8
20260505002203 22 312 3.2 14.5 0.00 0.00 0.00 60 1005.9
20260505002003 22 328 3.2 14.5 0.00 0.00 0.00 60 1006.1
20260505001803 22 342 1.6 14.5 0.00 0.00 0.00 59 1006.1
20260505001604 22 333 1.6 14.5 0.00 0.00 0.00 60 1005.9
20260505001404 22 356 0.0 8.0 0.00 0.00 0.00 59 1005.9
20260505001203 22 1 0.0 8.0 0.00 0.00 0.00 59 1006.1
20260505001003 22 1 0.0 4.8 0.00 0.00 0.00 59 1006.1
20260505000804 22 1 0.0 6.4 0.00 0.00 0.00 59 1006.0
20260505000603 22 5 0.0 6.4 0.00 0.00 0.00 58 1006.0
20260505000405 22 4 0.0 12.9 0.00 0.00 0.00 58 1006.0
20260505000004 22 338 1.6 16.1 0.00 0.00 0.00 58 1005.9
20260504235604 23 328 1.6 16.1 0.00 0.00 0.00 58 1006.0
20260504235404 23 236 1.6 16.1 0.00 0.00 0.00 58 1006.0
20260504235203 23 200 1.6 16.1 0.00 0.00 0.00 58 1006.1
20260504235003 23 163 1.6 9.7 0.00 0.00 0.00 58 1006.1
20260504234804 23 158 1.6 9.7 0.00 0.00 0.00 57 1006.0
20260504234604 23 134 1.6 9.7 0.00 0.00 0.00 56 1006.0
20260504234403 23 302 1.6 9.7 0.00 0.00 0.00 55 1006.3
20260504234205 23 333 0.0 8.0 0.00 0.00 0.00 55 1006.0
20260504234003 23 322 1.6 12.9 0.00 0.00 0.00 55 1006.1
20260504233803 23 301 1.6 12.9 0.00 0.00 0.00 56 1006.3
20260504233404 23 227 1.6 12.9 0.00 0.00 0.00 56 1006.2
20260504233204 23 227 1.6 12.9 0.00 0.00 0.00 55 1006.3
20260504233004 23 258 1.6 12.9 0.00 0.00 0.00 55 1006.3
20260504232804 23 257 3.2 12.9 0.00 0.00 0.00 54 1006.4
20260504232603 23 269 3.2 12.9 0.00 0.00 0.00 54 1006.2
20260504232403 23 284 1.6 12.9 0.00 0.00 0.00 54 1006.5
20260504232203 23 274 1.6 12.9 0.00 0.00 0.00 54 1006.3
20260504232003 23 327 0.0 12.9 0.00 0.00 0.00 55 1006.6
20260504231803 23 341 0.0 8.0 0.00 0.00 0.00 54 1006.6
20260504231603 23 313 1.6 9.7 0.00 0.00 0.00 54 1006.5
20260504231403 23 313 1.6 9.7 0.00 0.00 0.00 53 1006.4
20260504231204 23 331 1.6 17.7 0.00 0.00 0.00 53 1006.4
20260504230803 24 351 4.8 37.0 0.00 0.00 0.00 52 1006.6
20260504230603 24 358 6.4 37.0 0.00 0.00 0.00 52 1006.7
20260504230403 24 358 6.4 37.0 0.00 0.00 0.00 51 1006.6
20260504230204 24 352 6.4 37.0 0.00 0.00 0.00 52 1006.5
20260504230004 24 334 4.8 24.1 0.00 0.00 0.00 52 1006.5
20260504225804 24 325 4.8 24.1 0.00 0.00 0.00 52 1006.7
20260504225603 24 312 3.2 24.1 0.00 0.00 0.00 53 1006.5
20260504225403 24 312 3.2 19.3 0.00 0.00 0.00 52 1006.6
20260504225203 24 322 3.2 24.1 0.00 0.00 0.00 51 1006.8
20260504225004 24 314 4.8 24.1 0.00 0.00 0.00 51 1006.8
20260504224804 24 286 4.8 24.1 0.00 0.00 0.00 50 1006.7
20260504224003 25 191 4.8 29.0 0.00 0.00 0.00 50 1006.5
20260504223803 25 219 4.8 29.0 0.00 0.00 0.00 50 1006.7
20260504223603 25 240 4.8 29.0 0.00 0.00 0.00 50 1006.6
20260504223403 25 251 4.8 29.0 0.00 0.00 0.00 50 1006.7
20260504223204 25 292 6.4 33.8 0.00 0.00 0.00 49 1006.5
20260504223003 25 337 4.8 33.8 0.00 0.00 0.00 50 1006.7
20260504222404 25 4 6.4 33.8 0.00 0.00 0.00 49 1006.7
20260504222204 25 342 8.0 33.8 0.00 0.00 0.00 49 1006.7
20260504222004 25 320 8.0 48.3 0.00 0.00 0.00 49 1006.9
20260504221804 25 314 8.0 49.9 0.00 0.00 0.00 48 1006.7
20260504221604 25 294 8.0 49.9 0.00 0.00 0.00 47 1006.7
20260504221403 26 274 8.0 49.9 0.00 0.00 0.00 47 1006.8
20260504221003 26 234 8.0 49.9 0.00 0.00 0.00 47 1006.7
20260504220804 26 230 8.0 20.9 0.00 0.00 0.00 50 1006.8
20260504220403 26 257 6.4 20.9 0.00 0.00 0.00 50 1006.7
20260504220203 26 284 6.4 20.9 0.00 0.00 0.00 50 1006.9
20260504215804 26 320 4.8 24.1 0.00 0.00 0.00 48 1006.8
20260504215604 26 343 4.8 24.1 0.00 0.00 0.00 47 1006.9
20260504215404 26 16 4.8 24.1 0.00 0.00 0.00 49 1007.1
20260504215003 27 21 3.2 24.1 0.00 0.00 0.00 50 1006.8
20260504214803 27 38 3.2 16.1 0.00 0.00 0.00 50 1006.8
20260504214603 26 310 4.8 32.2 0.00 0.00 0.00 50 1007.1
20260504214404 26 299 6.4 32.2 0.00 0.00 0.00 50 1006.9
20260504214204 26 291 6.4 32.2 0.00 0.00 0.00 49 1007.0
20260504213803 26 284 6.4 32.2 0.00 0.00 0.00 47 1007.3
20260504213604 26 302 6.4 32.2 0.00 0.00 0.00 48 1007.0
20260504213404 26 320 4.8 20.9 0.00 0.00 0.00 47 1007.2
20260504213004 26 314 4.8 20.9 0.00 0.00 0.00 48 1007.2
20260504212803 26 299 4.8 20.9 0.00 0.00 0.00 48 1007.2
20260504212603 26 252 4.8 17.7 0.00 0.00 0.00 47 1007.2
20260504212403 26 212 6.4 17.7 0.00 0.00 0.00 47 1007.2
20260504212203 26 269 6.4 24.1 0.00 0.00 0.00 47 1007.4
20260504212004 26 332 6.4 24.1 0.00 0.00 0.00 48 1007.3
20260504211803 26 39 6.4 24.1 0.00 0.00 0.00 49 1007.3
20260504211603 26 345 6.4 25.7 0.00 0.00 0.00 50 1007.4
20260504211203 26 343 6.4 25.7 0.00 0.00 0.00 49 1007.5
20260504211003 26 325 6.4 25.7 0.00 0.00 0.00 48 1007.5
20260504210803 26 299 6.4 25.7 0.00 0.00 0.00 48 1007.5
20260504210403 27 320 6.4 24.1 0.00 0.00 0.00 48 1007.4
20260504210004 27 294 6.4 27.4 0.00 0.00 0.00 49 1007.6
20260504205804 27 342 6.4 27.4 0.00 0.00 0.00 47 1007.7
20260504205603 27 236 6.4 33.8 0.00 0.00 0.00 48 1007.7
20260504205403 27 246 6.4 33.8 0.00 0.00 0.00 47 1007.7
20260504205203 27 279 6.4 33.8 0.00 0.00 0.00 47 1007.7
20260504205003 27 299 4.8 33.8 0.00 0.00 0.00 48 1007.7
20260504204603 27 352 4.8 19.3 0.00 0.00 0.00 49 1007.8
20260504204403 27 8 4.8 19.3 0.00 0.00 0.00 48 1007.9
20260504204004 27 352 4.8 19.3 0.00 0.00 0.00 47 1007.8
20260504203804 27 342 4.8 19.3 0.00 0.00 0.00 50 1007.9
20260504203404 27 334 4.8 20.9 0.00 0.00 0.00 50 1008.0
20260504203203 27 337 4.8 20.9 0.00 0.00 0.00 48 1007.9
20260504203004 27 338 4.8 20.9 0.00 0.00 0.00 50 1008.0
20260504202803 26 3 4.8 20.9 0.00 0.00 0.00 50 1008.0
20260504202603 26 150 6.4 19.3 0.00 0.00 0.00 49 1007.9
20260504202403 26 170 8.0 33.8 0.00 0.00 0.00 48 1008.2
20260504202204 26 214 8.0 33.8 0.00 0.00 0.00 48 1008.1
20260504202004 26 248 8.0 33.8 0.00 0.00 0.00 49 1008.1
20260504201804 26 221 8.0 33.8 0.00 0.00 0.00 47 1008.1
20260504201604 26 286 8.0 33.8 0.00 0.00 0.00 47 1008.4
20260504201404 26 302 6.4 20.9 0.00 0.00 0.00 49 1008.0
20260504201204 26 317 8.0 20.9 0.00 0.00 0.00 49 1008.4
20260504201004 26 314 8.0 20.9 0.00 0.00 0.00 48 1008.3
20260504200604 26 326 8.0 20.9 0.00 0.00 0.00 47 1008.4
20260504200403 26 327 8.0 27.4 0.00 0.00 0.00 47 1008.5
20260504200204 26 335 8.0 27.4 0.00 0.00 0.00 47 1008.6
20260504200004 26 341 8.0 27.4 0.00 0.00 0.00 47 1008.8
20260504195804 26 332 8.0 27.4 0.00 0.00 0.00 47 1008.7
20260504195603 26 308 8.0 27.4 0.00 0.00 0.00 47 1008.8
20260504195404 26 310 8.0 27.4 0.00 0.00 0.00 48 1008.7
20260504195204 26 297 6.4 20.9 0.00 0.00 0.00 47 1008.8
20260504194803 26 305 4.8 20.9 0.00 0.00 0.00 47 1008.9
20260504194603 26 1 4.8 17.7 0.00 0.00 0.00 48 1009.1
20260504194404 26 351 6.4 19.3 0.00 0.00 0.00 49 1008.9
20260504193803 26 358 8.0 32.2 0.00 0.00 0.00 47 1009.0
20260504193604 26 359 6.4 32.2 0.00 0.00 0.00 47 1009.0
20260504193404 26 301 6.4 40.2 0.00 0.00 0.00 46 1009.2
20260504193203 26 253 6.4 40.2 0.00 0.00 0.00 46 1009.1
20260504193003 26 248 6.4 40.2 0.00 0.00 0.00 49 1009.2
20260504192803 26 275 6.4 40.2 0.00 0.00 0.00 50 1009.2
20260504192603 26 294 6.4 40.2 0.00 0.00 0.00 47 1009.0
20260504192404 26 317 6.4 40.2 0.00 0.00 0.00 48 1009.2
20260504192204 26 322 6.4 19.3 0.00 0.00 0.00 48 1009.1
20260504192004 26 303 6.4 19.3 0.00 0.00 0.00 49 1009.1
20260504191803 26 309 6.4 17.7 0.00 0.00 0.00 50 1009.1
20260504191604 26 301 6.4 17.7 0.00 0.00 0.00 47 1009.2
20260504191404 26 288 6.4 17.7 0.00 0.00 0.00 47 1009.4
20260504191203 26 297 6.4 14.5 0.00 0.00 0.00 48 1009.4
20260504190803 26 325 6.4 37.0 0.00 0.00 0.00 47 1009.3
20260504190603 26 12 6.4 37.0 0.00 0.00 0.00 48 1009.4
20260504190404 26 64 8.0 37.0 0.00 0.00 0.00 47 1009.6
20260504190204 26 89 8.0 37.0 0.00 0.00 0.00 46 1009.7
20260504190004 26 92 8.0 37.0 0.00 0.00 0.00 46 1009.5
20260504185803 26 83 8.0 37.0 0.00 0.00 0.00 46 1009.6
20260504185203 26 298 6.4 17.7 0.00 0.00 0.00 46 1009.4
20260504185004 26 317 6.4 17.7 0.00 0.00 0.00 47 1009.7
20260504184803 26 324 6.4 17.7 0.00 0.00 0.00 47 1009.6
20260504184603 26 343 6.4 19.3 0.00 0.00 0.00 48 1009.6
20260504184403 26 337 6.4 19.3 0.00 0.00 0.00 47 1009.9
20260504184203 26 347 6.4 19.3 0.00 0.00 0.00 48 1009.7
20260504184004 25 336 8.0 19.3 0.00 0.00 0.00 48 1009.6
20260504183604 25 309 6.4 20.9 0.00 0.00 0.00 47 1009.8
20260504183403 25 294 6.4 24.1 0.00 0.00 0.00 48 1009.7
20260504183203 25 262 6.4 24.1 0.00 0.00 0.00 49 1009.6
20260504183003 25 265 8.0 25.7 0.00 0.00 0.00 48 1009.6
20260504182803 25 271 9.7 29.0 0.00 0.00 0.00 47 1009.7
20260504182604 25 273 9.7 29.0 0.00 0.00 0.00 47 1009.9
20260504182203 25 332 9.7 32.2 0.00 0.00 0.00 47 1010.1
20260504182003 25 1 8.0 32.2 0.00 0.00 0.00 46 1010.0
20260504181803 25 24 6.4 32.2 0.00 0.00 0.00 46 1009.8
20260504181603 26 335 6.4 32.2 0.00 0.00 0.00 47 1009.9
20260504181403 26 283 4.8 17.7 0.00 0.00 0.00 48 1009.9
20260504181204 25 275 4.8 17.7 0.00 0.00 0.00 48 1010.0
20260504181003 25 272 4.8 17.7 0.00 0.00 0.00 48 1010.1
20260504180803 25 279 4.8 27.4 0.00 0.00 0.00 48 1010.0
20260504180603 25 277 6.4 27.4 0.00 0.00 0.00 48 1010.1
20260504180403 25 262 6.4 32.2 0.00 0.00 0.00 48 1010.1
20260504180204 25 260 6.4 32.2 0.00 0.00 0.00 48 1010.1
20260504180004 25 272 6.4 32.2 0.00 0.00 0.00 48 1010.2
20260504175804 25 246 6.4 32.2 0.00 0.00 0.00 47 1010.2
20260504175604 25 237 6.4 32.2 0.00 0.00 0.00 47 1010.4
20260504175404 25 275 6.4 25.7 0.00 0.00 0.00 51 1010.5
20260504175203 25 294 6.4 25.7 0.00 0.00 0.00 49 1010.2
20260504175003 25 284 8.0 25.7 0.00 0.00 0.00 49 1010.3
20260504174803 25 284 8.0 25.7 0.00 0.00 0.00 48 1010.2
20260504174603 25 309 8.0 25.7 0.00 0.00 0.00 48 1010.5
20260504174404 25 323 8.0 25.7 0.00 0.00 0.00 47 1010.4
20260504174203 25 327 8.0 25.7 0.00 0.00 0.00 47 1010.7
20260504174004 25 351 8.0 25.7 0.00 0.00 0.00 48 1010.6
20260504173803 25 15 6.4 24.1 0.00 0.00 0.00 48 1010.7
20260504173604 25 18 6.4 24.1 0.00 0.00 0.00 48 1010.7
20260504173403 25 11 6.4 29.0 0.00 0.00 0.00 47 1010.7
20260504173203 25 27 8.0 29.0 0.00 0.00 0.00 49 1010.9
20260504173003 25 15 6.4 29.0 0.00 0.00 0.00 49 1010.6
20260504172803 25 2 8.0 29.0 0.00 0.00 0.00 48 1010.8
20260504172603 25 348 8.0 29.0 0.00 0.00 0.00 47 1011.0
20260504172403 25 354 8.0 29.0 0.00 0.00 0.00 48 1010.6
20260504172203 25 336 6.4 27.4 0.00 0.00 0.00 48 1011.1
20260504172004 25 314 6.4 32.2 0.00 0.00 0.00 48 1010.9
20260504171604 25 270 8.0 43.5 0.00 0.00 0.00 48 1011.1
20260504171404 25 262 8.0 43.5 0.00 0.00 0.00 48 1010.9
20260504171203 25 260 9.7 43.5 0.00 0.00 0.00 48 1011.2
20260504171003 25 274 8.0 43.5 0.00 0.00 0.00 48 1011.1
20260504170803 25 273 8.0 43.5 0.00 0.00 0.00 48 1011.1
20260504170604 25 273 6.4 37.0 0.00 0.00 0.00 48 1011.1
20260504170404 25 265 6.4 37.0 0.00 0.00 0.00 48 1011.1
20260504170204 24 264 6.4 25.7 0.00 0.00 0.00 50 1011.1
20260504160403 23 211 6.4 24.1 0.00 0.00 0.00 55 1011.8
20260504151004 21 309 6.4 27.4 0.00 0.00 0.00 62 1011.9
20260504150804 21 299 8.0 27.4 0.00 0.00 0.00 63 1011.9
20260504150404 21 299 9.7 27.4 0.00 0.00 0.00 61 1011.9
20260504150203 21 290 9.7 27.4 0.00 0.00 0.00 61 1012.0
20260504141204 18 270 3.2 19.3 0.00 0.00 0.00 72 1012.1
20260504141003 18 274 1.6 16.1 0.00 0.00 0.00 72 1012.2
20260504140803 18 294 3.2 16.1 0.00 0.00 0.00 74 1012.3
20260504140604 18 321 3.2 16.1 0.00 0.00 0.00 74 1012.3
20260504140403 18 346 3.2 16.1 0.00 0.00 0.00 74 1012.3
20260504130805 15 340 1.6 9.7 0.00 0.00 0.00 85 1012.4
20260504130604 15 353 1.6 12.9 0.00 0.00 0.00 86 1012.5
20260504130403 15 350 1.6 12.9 0.00 0.00 0.00 86 1012.2
20260504130204 15 3 1.6 12.9 0.00 0.00 0.00 86 1012.4
20260504120204 14 1 0.0 1.6 0.00 0.00 0.00 85 1011.6
20260504110603 15 298 0.0 6.4 0.00 0.00 0.00 82 1011.1
20260504110404 15 315 0.0 6.4 0.00 0.00 0.00 82 1011.3
20260504110204 15 317 0.0 6.4 0.00 0.00 0.00 82 1011.3
20260504100603 15 1 0.0 8.0 0.00 0.00 0.00 80 1011.7
20260504100403 15 1 0.0 8.0 0.00 0.00 0.00 80 1011.5
20260504100203 15 1 0.0 8.0 0.00 0.00 0.00 80 1011.6
20260504082004 16 147 0.0 6.4 0.00 0.00 0.00 77 1011.9
20260504081804 16 142 0.0 6.4 0.00 0.00 0.00 77 1012.2
20260504081604 16 224 0.0 6.4 0.00 0.00 0.00 77 1011.8
20260504081403 16 270 0.0 6.4 0.00 0.00 0.00 77 1011.6
20260504081203 16 277 0.0 6.4 0.00 0.00 0.00 77 1011.6
20260504081003 16 301 0.0 6.4 0.00 0.00 0.00 77 1011.9
20260504080803 16 296 0.0 4.8 0.00 0.00 0.00 76 1011.8
20260504080604 16 291 0.0 4.8 0.00 0.00 0.00 76 1011.9
20260504080404 16 301 0.0 4.8 0.00 0.00 0.00 76 1011.7
20260504080204 16 315 0.0 4.8 0.00 0.00 0.00 76 1012.0
20260504070403 17 1 1.6 19.3 0.00 0.00 0.00 72 1012.1
20260504070204 17 352 1.6 19.3 0.00 0.00 0.00 72 1012.2
20260504060203 18 350 3.2 14.5 0.00 0.00 0.00 68 1012.4
20260504050403 19 283 3.2 16.1 0.00 0.00 0.00 65 1012.5
20260504050203 19 283 3.2 16.1 0.00 0.00 0.00 65 1012.6
20260504050004 19 305 3.2 16.1 0.00 0.00 0.00 65 1012.5
20260504045803 19 295 3.2 16.1 0.00 0.00 0.00 65 1012.8
20260504045204 19 309 3.2 14.5 0.00 0.00 0.00 65 1012.5
20260504044603 19 289 1.6 14.5 0.00 0.00 0.00 65 1012.5
20260504044203 19 279 1.6 14.5 0.00 0.00 0.00 65 1012.6
20260504044003 19 292 1.6 14.5 0.00 0.00 0.00 65 1012.4
20260504043803 19 316 1.6 14.5 0.00 0.00 0.00 65 1012.5
20260504043603 19 329 1.6 14.5 0.00 0.00 0.00 66 1012.6
20260504043404 19 338 1.6 12.9 0.00 0.00 0.00 65 1012.4
20260504043204 19 343 1.6 12.9 0.00 0.00 0.00 64 1012.5
20260504043003 19 321 3.2 16.1 0.00 0.00 0.00 65 1012.7
20260504042803 19 316 3.2 29.0 0.00 0.00 0.00 65 1012.7
20260504042603 19 316 3.2 29.0 0.00 0.00 0.00 65 1012.6
20260504042404 19 324 3.2 29.0 0.00 0.00 0.00 65 1012.5
20260504042204 19 324 3.2 29.0 0.00 0.00 0.00 65 1012.5
20260504042004 19 325 3.2 29.0 0.00 0.00 0.00 65 1012.5
20260504041604 19 301 1.6 16.1 0.00 0.00 0.00 67 1012.5
20260504041403 19 272 1.6 9.7 0.00 0.00 0.00 65 1012.8
20260504041203 19 261 0.0 9.7 0.00 0.00 0.00 65 1012.5
20260504041004 19 279 0.0 12.9 0.00 0.00 0.00 65 1012.8
20260504040603 19 287 1.6 12.9 0.00 0.00 0.00 65 1012.8
20260504040403 19 304 1.6 12.9 0.00 0.00 0.00 65 1012.8